This is the latest recevied weather packets stored in our database for station/object CE2LOH-10. If no packets are shown the sender has not sent any weather packets the latest 10 day(s).
| Time | Temp. | Humidity | Pressure | Rain* | Wind** | Luminosity | Snow |
|---|---|---|---|---|---|---|---|
| 1778000935 | 20.56° C | 45% | 992.6 hPa | - | - | - | - |
| 1778000035 | 20° C | 45% | 992.3 hPa | - | - | - | - |
| 1777999135 | 20° C | 45% | 992.3 hPa | - | - | - | - |
| 1777998235 | 19.44° C | 46% | 992.2 hPa | - | - | - | - |
| 1777997334 | 19.44° C | 46% | 992.2 hPa | - | - | - | - |
| 1777996434 | 18.89° C | 46% | 992.1 hPa | - | - | - | - |
| 1777995534 | 18.33° C | 47% | 992 hPa | - | - | - | - |
| 1777994634 | 18.33° C | 47% | 992 hPa | - | - | - | - |
| 1777993734 | 17.78° C | 48% | 992.1 hPa | - | - | - | - |
| 1777992834 | 17.22° C | 48% | 992.1 hPa | - | - | - | - |
| 1777991934 | 17.22° C | 49% | 992.1 hPa | - | - | - | - |
| 1777991034 | 16.67° C | 49% | 992.2 hPa | - | - | - | - |
| 1777990133 | 16.11° C | 49% | 992.1 hPa | - | - | - | - |
| 1777989233 | 16.11° C | 49% | 992 hPa | - | - | - | - |
| 1777988333 | 15.56° C | 49% | 991.8 hPa | - | - | - | - |
| 1777987433 | 15.56° C | 48% | 992 hPa | - | - | - | - |
| 1777986533 | 15° C | 48% | 992.1 hPa | - | - | - | - |
| 1777985633 | 15° C | 47% | 992.4 hPa | - | - | - | - |
| 1777984733 | 13.89° C | 49% | 992.6 hPa | - | - | - | - |
| 1777983833 | 13.89° C | 49% | 992.6 hPa | - | - | - | - |
| 1777982932 | 13.89° C | 48% | 992.6 hPa | - | - | - | - |
| 1777981132 | 14.44° C | 48% | 992.5 hPa | - | - | - | - |
| 1777979332 | 14.44° C | 48% | 992.5 hPa | - | - | - | - |
| 1777978432 | 14.44° C | 47% | 992.4 hPa | - | - | - | - |
| 1777977532 | 14.44° C | 47% | 992.4 hPa | - | - | - | - |
* Rain since midnight (hover to see other rain measurements)
** Current wind speed in m/s (hover to see current wind gust speed)